User: anonymous   Login
Location: Geroldsau
(48.7259°N, 8.2466°E)
Time: 06:06:51
(UTC+00:00)
Language:

FALCON 9 DEB - Orbit

View from above orbital plane
View from above orbital plane
View from above satellite
View from above satellite

Ground track
Ground track

The orbit data is extracted from the following two-line orbital elements,

1 46084U 20055BK  21261.19429438  .00023673  00000-0  21728-3 0  9990
2 46084  53.0115 102.5636 0011077 188.8578 171.2243 15.67569632 68197
Epoch (UTC): 18 September 2021 04:39:47
Eccentricity: 0.0011077
inclination: 53.0115°
perigee height: 358 km
apogee height: 373 km
right ascension of ascending node: 102.5636°
argument of perigee: 188.8578°
revolutions per day: 15.67569632
mean anomaly at epoch: 171.2243°
orbit number at epoch: 6819

The dashed part of the orbit path shows where the satellite is in the earth's shadow,  

DLR